星链-2619 (STARLINK-2619 )

导读 | 星芒AI

STARLINK-2619 是 SpaceX 星链计划中的一颗低轨通信卫星,属于第26组星链卫星任务的一部分。该卫星于2023年发射,部署在约550公里高度的近地轨道上,旨在为全球用户提供高速互联网服务。作为星链星座的重要成员,它通过与其他卫星协同工作,提升网络覆盖和连接稳定性。星链项目致力于为偏远和网络基础设施薄弱地区提供可靠的宽带接入。

基本信息
目录编号:
48475
目录名称:
STARLINK-2619
国际标识:
2021-040AZ
轨道中心:
EARTH
卫星名称:
星链-2619
卫星全名:
星链-2619 (STARLINK-2619 )
卫星状态:
在轨 (已飞行1635 天)
发射日期:
2021-05-09 UTC
国别 :
美国 (US)
星等 :
--
轨道信息
数据来源 国际轨道数据
星历时间: 2025-10-30T15:43:27+0800
5小时前
查看轨道信息
半长轴: 6777.22km
偏心率: 0.0002124
轨道倾角: 53.029°
近地点辐角 213.525°
升交点赤经 359.094°
平近点角 146.563°
近地点: 397.645km
远地点: 400.525km
周期: 92.542分钟
每日圈数: 15.560568
详细信息
固有亮度:
5
最大亮度:
2.5
卫星平台:
Starlink V1.0
覆盖范围:
全球
运营商:
太空探索技术公司
运营商所在国:
美国
制造商(研发单位):
太空探索技术公司
制造商所在国:
美国
使用方式:
暂无
卫星简介
星链(Starlink)计划是由太空探索技术公司(SpaceX)提出的一个巨型低轨卫星互联网星座项目,计划在2019年至2024年间在太空搭建由约1.2万颗卫星组成的“星链”网络,其中1584颗将部署在地球上空550千米处的近地轨道,并从2020年开始工作。该卫星仍在工作。
2D轨道图
3D轨道图
轨道高度分析图
轨道倾角分析图
轨道综合分析图
查看轨道综合分析图